| time (UTC) | temp F | wind direction | speed MPH | gust MPH | rain 1hr in | rain 24hr in | rain mn in | humidity % | barometer mb |
| 20260505152905 | 66 | 233 | 12.0 | 20.0 | 0.00 | 0.00 | 0.00 | 72 | 1004.7 |
| 20260505151915 | 65 | 254 | 9.0 | 22.0 | 0.00 | 0.00 | 0.00 | 72 | 1004.7 |
| 20260505140544 | 64 | 227 | 8.0 | 22.0 | 0.00 | 0.00 | 0.00 | 75 | 1004.3 |
| 20260505124354 | 62 | 149 | 0.0 | 0.0 | 0.00 | 0.00 | 0.00 | 71 | 1004.1 |
| 20260505123326 | 62 | 244 | 0.0 | 0.0 | 0.00 | 0.00 | 0.00 | 71 | 1004.0 |
| 20260505122336 | 62 | 226 | 0.0 | 0.0 | 0.00 | 0.00 | 0.00 | 70 | 1003.9 |
| 20260505120303 | 62 | 252 | 0.0 | 0.0 | 0.00 | 0.00 | 0.00 | 69 | 1003.4 |
| 20260505115311 | 62 | 238 | 0.0 | 0.0 | 0.00 | 0.00 | 0.00 | 68 | 1003.0 |
| 20260505114255 | 62 | 224 | 0.0 | 0.0 | 0.00 | 0.00 | 0.00 | 68 | 1002.6 |
| 20260505113221 | 62 | 254 | 0.0 | 0.0 | 0.00 | 0.00 | 0.00 | 68 | 1002.3 |
| 20260505112202 | 62 | 242 | 0.0 | 0.0 | 0.00 | 0.00 | 0.00 | 67 | 1002.4 |
| 20260505111152 | 62 | 192 | 0.0 | 0.0 | 0.00 | 0.00 | 0.00 | 67 | 1002.4 |
| 20260505110136 | 62 | 245 | 0.0 | 0.0 | 0.00 | 0.00 | 0.00 | 67 | 1002.3 |
| 20260505101906 | 64 | 265 | 0.0 | 0.0 | 0.00 | 0.00 | 0.00 | 66 | 1002.3 |
| 20260505100836 | 64 | 211 | 0.0 | 0.0 | 0.00 | 0.00 | 0.00 | 64 | 1002.1 |
| 20260505095857 | 64 | 253 | 0.0 | 0.0 | 0.00 | 0.00 | 0.00 | 64 | 1002.1 |
| 20260505094915 | 65 | 253 | 0.0 | 0.0 | 0.00 | 0.00 | 0.00 | 63 | 1001.8 |
| 20260505093936 | 65 | 242 | 0.0 | 0.0 | 0.00 | 0.00 | 0.00 | 63 | 1001.4 |
| 20260505092926 | 65 | 240 | 0.0 | 0.0 | 0.00 | 0.00 | 0.00 | 63 | 1001.4 |
| 20260505091936 | 65 | 216 | 0.0 | 0.0 | 0.00 | 0.00 | 0.00 | 62 | 1001.4 |
| 20260505090926 | 66 | 250 | 0.0 | 0.0 | 0.00 | 0.00 | 0.00 | 61 | 1001.2 |
| 20260505085944 | 66 | 211 | 0.0 | 0.0 | 0.00 | 0.00 | 0.00 | 60 | 1001.1 |
| 20260505083815 | 67 | 238 | 0.0 | 0.0 | 0.00 | 0.00 | 0.00 | 59 | 1001.0 |
| 20260505082752 | 67 | 244 | 0.0 | 0.0 | 0.00 | 0.00 | 0.00 | 59 | 1000.8 |
| 20260505081734 | 67 | 240 | 0.0 | 0.0 | 0.00 | 0.00 | 0.00 | 59 | 1000.8 |
| 20260505080744 | 67 | 240 | 0.0 | 0.0 | 0.00 | 0.00 | 0.00 | 58 | 1000.7 |
| 20260505075731 | 68 | 255 | 0.0 | 0.0 | 0.00 | 0.00 | 0.00 | 57 | 1000.9 |
| 20260505074711 | 68 | 244 | 0.0 | 0.0 | 0.00 | 0.00 | 0.00 | 58 | 1000.8 |
| 20260505073653 | 68 | 219 | 0.0 | 0.0 | 0.00 | 0.00 | 0.00 | 58 | 1000.6 |
| 20260505072700 | 68 | 165 | 0.0 | 0.0 | 0.00 | 0.00 | 0.00 | 58 | 1000.7 |
| 20260505071645 | 67 | 252 | 0.0 | 0.0 | 0.00 | 0.00 | 0.00 | 59 | 1000.7 |
| 20260505070615 | 67 | 238 | 0.0 | 0.0 | 0.00 | 0.00 | 0.00 | 60 | 1000.7 |
| 20260505065611 | 67 | 266 | 0.0 | 0.0 | 0.00 | 0.00 | 0.00 | 62 | 1000.8 |
| 20260505064542 | 67 | 173 | 0.0 | 0.0 | 0.00 | 0.00 | 0.00 | 63 | 1000.8 |
| 20260505063523 | 68 | 199 | 0.0 | 0.0 | 0.00 | 0.00 | 0.00 | 59 | 1000.8 |
| 20260505062520 | 68 | 165 | 0.0 | 0.0 | 0.00 | 0.00 | 0.00 | 59 | 1000.8 |
| 20260505061514 | 68 | 219 | 0.0 | 0.0 | 0.00 | 0.00 | 0.00 | 60 | 1000.9 |
| 20260505060531 | 68 | 232 | 0.0 | 0.0 | 0.00 | 0.00 | 0.00 | 60 | 1000.9 |
| 20260505054405 | 67 | 196 | 0.0 | 0.0 | 0.00 | 0.00 | 0.00 | 61 | 1001.2 |
| 20260505053359 | 67 | 198 | 0.0 | 0.0 | 0.00 | 0.00 | 0.00 | 63 | 1001.2 |
| 20260505051303 | 66 | 184 | 0.0 | 0.0 | 0.00 | 0.00 | 0.00 | 64 | 1001.4 |
| 20260505050243 | 66 | 217 | 0.0 | 0.0 | 0.00 | 0.00 | 0.00 | 65 | 1001.4 |
| 20260505041155 | 66 | 205 | 0.0 | 0.0 | 0.00 | 0.00 | 0.00 | 65 | 1001.8 |
| 20260505040124 | 66 | 191 | 0.0 | 0.0 | 0.00 | 0.00 | 0.00 | 65 | 1001.9 |
| 20260505035108 | 65 | 183 | 0.0 | 0.0 | 0.00 | 0.00 | 0.00 | 65 | 1001.9 |
| 20260505034043 | 65 | 175 | 0.0 | 0.0 | 0.00 | 0.00 | 0.00 | 65 | 1001.9 |
| 20260505031858 | 66 | 175 | 0.0 | 0.0 | 0.00 | 0.00 | 0.00 | 63 | 1002.2 |
| 20260505030845 | 66 | 201 | 0.0 | 0.0 | 0.00 | 0.00 | 0.00 | 63 | 1002.3 |
| 20260505025900 | 66 | 254 | 0.0 | 0.0 | 0.00 | 0.00 | 0.00 | 62 | 1002.4 |
| 20260505024910 | 66 | 202 | 0.0 | 0.0 | 0.00 | 0.00 | 0.00 | 61 | 1002.3 |
| 20260505023844 | 66 | 207 | 0.0 | 0.0 | 0.00 | 0.00 | 0.00 | 60 | 1002.3 |
| 20260505022904 | 67 | 210 | 0.0 | 0.0 | 0.00 | 0.00 | 0.00 | 59 | 1002.3 |
| 20260505021832 | 67 | 227 | 0.0 | 0.0 | 0.00 | 0.00 | 0.00 | 58 | 1002.3 |
| 20260505020805 | 68 | 206 | 0.0 | 0.0 | 0.00 | 0.00 | 0.00 | 56 | 1002.2 |
| 20260505015802 | 68 | 239 | 0.0 | 0.0 | 0.00 | 0.00 | 0.00 | 55 | 1002.1 |
| 20260505014822 | 69 | 259 | 0.0 | 0.0 | 0.00 | 0.00 | 0.00 | 54 | 1002.1 |
| 20260505013843 | 69 | 246 | 0.0 | 0.0 | 0.00 | 0.00 | 0.00 | 53 | 1002.3 |
| 20260505012901 | 69 | 182 | 0.0 | 0.0 | 0.00 | 0.00 | 0.00 | 54 | 1002.1 |
| 20260505011831 | 69 | 243 | 0.0 | 0.0 | 0.00 | 0.00 | 0.00 | 54 | 1002.0 |
| 20260505010811 | 69 | 189 | 0.0 | 0.0 | 0.00 | 0.00 | 0.00 | 53 | 1001.9 |
| 20260505005834 | 70 | 196 | 0.0 | 0.0 | 0.00 | 0.00 | 0.00 | 53 | 1001.9 |
| 20260505004855 | 70 | 217 | 0.0 | 0.0 | 0.00 | 0.00 | 0.00 | 53 | 1001.8 |
| 20260505003902 | 70 | 235 | 0.0 | 0.0 | 0.00 | 0.00 | 0.00 | 52 | 1001.6 |
| 20260505002852 | 70 | 188 | 0.0 | 0.0 | 0.00 | 0.00 | 0.00 | 51 | 1001.5 |
| 20260505001833 | 71 | 246 | 0.0 | 0.0 | 0.00 | 0.00 | 0.00 | 51 | 1001.4 |
| 20260505000811 | 71 | 180 | 0.0 | 0.0 | 0.00 | 0.00 | 0.00 | 51 | 1001.1 |
| 20260504233542 | 72 | 185 | 0.0 | 0.0 | 0.00 | 0.00 | 0.00 | 51 | 1000.7 |
| 20260504232548 | 72 | 222 | 0.0 | 0.0 | 0.00 | 0.00 | 0.00 | 51 | 1000.6 |
| 20260504231603 | 73 | 170 | 0.0 | 0.0 | 0.00 | 0.00 | 0.00 | 51 | 1000.7 |
| 20260504230613 | 73 | 205 | 0.0 | 0.0 | 0.00 | 0.00 | 0.00 | 52 | 1000.8 |
| 20260504225612 | 73 | 236 | 0.0 | 0.0 | 0.00 | 0.00 | 0.00 | 52 | 1001.0 |
| 20260504224539 | 72 | 254 | 0.0 | 0.0 | 0.00 | 0.00 | 0.00 | 53 | 1001.0 |
| 20260504223523 | 72 | 257 | 0.0 | 0.0 | 0.00 | 0.00 | 0.00 | 54 | 1001.1 |
| 20260504222544 | 72 | 164 | 0.0 | 0.0 | 0.00 | 0.00 | 0.00 | 56 | 1001.3 |
| 20260504221535 | 72 | 234 | 0.0 | 0.0 | 0.00 | 0.00 | 0.00 | 56 | 1001.3 |
| 20260504220526 | 71 | 198 | 0.0 | 0.0 | 0.00 | 0.00 | 0.00 | 57 | 1001.4 |
| 20260504215504 | 71 | 169 | 0.0 | 0.0 | 0.00 | 0.00 | 0.00 | 55 | 1001.5 |
| 20260504214514 | 73 | 209 | 0.0 | 0.0 | 0.00 | 0.00 | 0.00 | 51 | 1001.7 |
| 20260504213457 | 73 | 223 | 0.0 | 0.0 | 0.00 | 0.00 | 0.00 | 52 | 1001.5 |
| 20260504212516 | 73 | 207 | 0.0 | 0.0 | 0.00 | 0.00 | 0.00 | 51 | 1001.6 |
| 20260504211502 | 74 | 215 | 0.0 | 0.0 | 0.00 | 0.00 | 0.00 | 50 | 1001.6 |
| 20260504210523 | 74 | 239 | 0.0 | 0.0 | 0.00 | 0.00 | 0.00 | 50 | 1001.8 |
| 20260504205524 | 73 | 214 | 0.0 | 0.0 | 0.00 | 0.00 | 0.00 | 52 | 1001.9 |
| 20260504204529 | 73 | 246 | 0.0 | 0.0 | 0.00 | 0.00 | 0.00 | 50 | 1002.1 |
| 20260504202425 | 74 | 229 | 0.0 | 0.0 | 0.00 | 0.00 | 0.00 | 48 | 1002.2 |
| 20260504201446 | 74 | 236 | 0.0 | 0.0 | 0.00 | 0.00 | 0.00 | 47 | 1002.4 |
| 20260504200507 | 74 | 184 | 0.0 | 0.0 | 0.00 | 0.00 | 0.00 | 48 | 1002.5 |
| 20260504194339 | 74 | 260 | 0.0 | 0.0 | 0.00 | 0.00 | 0.00 | 45 | 1002.7 |
| 20260504193327 | 73 | 261 | 0.0 | 0.0 | 0.00 | 0.00 | 0.00 | 46 | 1002.9 |
| 20260504192330 | 74 | 205 | 0.0 | 0.0 | 0.00 | 0.00 | 0.00 | 46 | 1002.9 |
| 20260504191301 | 74 | 194 | 0.0 | 0.0 | 0.00 | 0.00 | 0.00 | 46 | 1003.3 |
| 20260504190248 | 73 | 246 | 0.0 | 0.0 | 0.00 | 0.00 | 0.00 | 46 | 1003.3 |
| 20260504185244 | 74 | 236 | 0.0 | 0.0 | 0.00 | 0.00 | 0.00 | 46 | 1003.4 |
| 20260504184226 | 73 | 163 | 0.0 | 0.0 | 0.00 | 0.00 | 0.00 | 44 | 1003.6 |
| 20260504183250 | 73 | 264 | 0.0 | 0.0 | 0.00 | 0.00 | 0.00 | 45 | 1003.8 |
| 20260504182252 | 73 | 232 | 0.0 | 0.0 | 0.00 | 0.00 | 0.00 | 45 | 1003.9 |
| 20260504181302 | 72 | 246 | 0.0 | 0.0 | 0.00 | 0.00 | 0.00 | 47 | 1003.9 |
| 20260504180309 | 72 | 200 | 0.0 | 0.0 | 0.00 | 0.00 | 0.00 | 46 | 1003.9 |
| 20260504175255 | 72 | 157 | 0.0 | 0.0 | 0.00 | 0.00 | 0.00 | 47 | 1004.0 |
| 20260504174230 | 72 | 213 | 0.0 | 0.0 | 0.00 | 0.00 | 0.00 | 47 | 1004.1 |
| 20260504173237 | 72 | 182 | 0.0 | 0.0 | 0.00 | 0.00 | 0.00 | 46 | 1004.2 |
| 20260504172259 | 72 | 183 | 0.0 | 0.0 | 0.00 | 0.00 | 0.00 | 47 | 1004.3 |